Date,TemperatureHighF,TemperatureAvgF,TemperatureLowF,DewpointHighF,DewpointAvgF,DewpointLowF,HumidityHigh,HumidityAvg,HumidityLow,PressureMaxIn,PressureMinIn,WindSpeedMaxMPH,WindSpeedAvgMPH,GustSpeedMaxMPH,PrecipitationSumIn
2014-1-1,63.9,50.9,42.3,36.3,30.8,28.2,60,47,32,30.36,30.27,5,0,5,0.00
2014-1-2,64.4,52.7,45.0,38.3,34.2,29.5,64,50,35,30.33,30.19,5,0,7,0.00
2014-1-3,65.3,52.9,45.7,41.0,36.4,32.7,67,54,39,30.22,30.09,5,0,5,0.00
2014-1-4,66.0,53.4,43.2,39.4,29.2,10.9,76,45,17,30.23,30.12,9,1,11,0.00
2014-1-5,66.7,54.8,45.7,37.2,24.7,11.7,58,32,18,30.36,30.23,8,1,8,0.00
2014-1-6,60.3,50.0,43.9,38.5,35.7,30.7,71,58,39,30.43,30.31,4,0,7,0.00
2014-1-7,66.0,52.0,44.2,48.6,38.5,33.6,89,62,31,30.35,30.26,8,1,9,0.00
2014-1-8,57.6,52.1,47.1,49.3,47.6,44.4,92,85,69,30.36,30.28,11,1,13,0.00
2014-1-9,63.3,51.9,46.9,48.7,44.2,37.4,92,76,46,30.40,30.31,11,1,12,0.00
2014-1-10,61.9,50.2,42.6,46.4,42.1,36.5,91,75,55,30.45,30.32,5,0,5,0.00
2014-1-11,56.5,49.5,44.8,50.5,45.7,41.0,92,87,80,30.43,30.28,14,2,14,0.00
2014-1-12,59.7,49.9,42.4,44.4,38.3,29.3,93,68,36,30.54,30.40,8,0,8,0.01
2014-1-13,64.9,55.5,47.8,37.4,35.3,33.3,63,47,31,30.62,30.49,8,1,9,0.00
2014-1-14,69.4,59.5,52.9,36.3,31.3,26.8,50,35,24,30.61,30.47,7,1,9,0.00
2014-1-15,71.8,60.1,47.8,40.3,30.4,19.9,62,35,16,30.49,30.34,10,1,12,0.00
2014-1-16,73.0,60.0,52.2,33.6,25.7,14.5,44,29,14,30.39,30.27,8,0,9,0.00
2014-1-17,68.4,54.4,45.9,39.9,33.4,15.6,67,47,24,30.35,30.26,5,0,5,0.00
2014-1-18,69.3,55.4,46.0,33.3,29.1,25.0,56,38,22,30.33,30.21,7,0,7,0.00
2014-1-19,66.6,53.5,45.0,38.1,34.0,30.7,65,49,31,30.29,30.21,5,0,8,0.00
2014-1-20,48.6,47.5,45.9,33.1,31.6,29.7,56,54,53,30.29,30.26,0,0,1,0.00
2014-1-21,69.1,56.3,44.8,31.1,26.7,23.0,51,33,20,30.41,30.30,5,0,8,0.00
2014-1-22,74.5,56.2,46.6,30.7,24.7,19.6,45,31,14,30.31,30.06,5,0,5,0.00
2014-1-23,66.0,55.8,47.7,32.0,28.6,23.0,53,36,25,30.15,30.01,9,1,10,0.00
2014-1-24,70.9,55.7,45.7,34.9,32.2,29.7,60,43,24,30.41,30.15,5,0,5,0.00
2014-1-25,73.4,58.7,48.4,41.2,31.1,26.1,69,38,18,30.42,30.26,5,0,7,0.00
2014-1-26,69.6,55.9,46.9,37.9,32.5,27.9,70,42,22,30.28,30.17,4,0,7,0.00
2014-1-27,67.1,53.1,42.4,47.8,43.9,37.4,92,72,37,30.32,30.20,7,1,9,0.00
2014-1-28,68.2,58.1,51.1,55.8,50.9,45.1,92,78,56,30.39,30.31,11,2,11,0.00
2014-1-29,60.8,57.3,52.5,57.0,54.5,48.4,93,90,86,30.34,30.12,12,2,12,0.01
2014-1-30,61.3,52.3,48.9,50.5,46.8,44.4,93,82,58,30.12,29.97,13,2,13,0.05
2014-1-31,60.6,50.1,41.9,45.0,36.5,23.9,91,64,25,30.22,30.04,13,2,14,0.00
2014-2-1,61.2,46.8,38.5,39.7,33.5,27.5,87,63,30,30.31,30.21,10,1,12,0.00
2014-2-2,48.9,44.0,41.4,44.8,39.8,33.6,91,85,65,30.21,30.00,6,1,11,0.01
2014-2-3,56.1,44.2,37.2,41.5,38.1,34.5,93,80,52,30.22,30.13,16,1,18,0.02
2014-2-4,55.9,43.5,36.0,40.3,36.7,33.1,93,78,50,30.31,30.22,7,0,9,0.00
2014-2-5,54.3,43.7,35.2,42.3,38.1,32.5,94,82,53,30.35,30.21,12,2,14,0.10
2014-2-6,50.7,47.1,43.3,48.6,45.2,40.8,95,93,90,30.21,30.04,5,1,7,0.01
2014-2-7,52.3,50.4,48.9,49.8,48.2,46.8,94,92,87,30.24,30.13,12,2,12,0.21
2014-2-8,57.2,54.7,51.3,55.4,52.9,49.3,95,94,91,30.29,30.17,17,5,20,0.32
2014-2-9,57.7,56.1,55.0,55.9,54.7,53.6,96,95,93,30.29,30.18,12,4,17,0.17
2014-2-10,59.2,54.3,51.3,54.1,51.9,48.9,96,92,82,30.42,30.22,13,2,15,0.01
2014-2-11,64.9,52.3,44.2,53.6,48.0,42.6,96,86,59,30.39,30.30,8,1,8,0.01
2014-2-12,65.1,52.6,42.6,52.0,46.5,41.0,95,81,55,30.43,30.32,7,0,8,0.01
2014-2-13,70.5,58.5,50.2,59.9,53.6,48.0,95,84,65,30.35,30.23,9,1,12,0.00
2014-2-14,63.1,56.6,50.5,55.0,52.6,47.7,94,87,72,30.30,30.18,9,1,11,0.00
2014-2-15,59.2,53.3,48.7,53.8,50.2,46.6,95,89,80,30.19,30.11,13,2,17,0.03
2014-2-16,63.5,53.4,45.3,52.5,43.8,34.9,94,73,36,30.35,30.15,13,1,14,0.05
2014-2-17,61.7,49.9,40.6,44.4,40.9,37.4,91,73,42,30.32,30.24,14,1,14,0.00
2014-2-18,64.9,52.8,45.0,49.1,45.6,41.7,92,78,46,30.35,30.23,10,1,11,0.00
2014-2-19,65.5,55.2,48.0,50.4,45.3,38.8,92,71,44,30.35,30.23,9,1,9,0.01
2014-2-20,66.6,54.2,43.5,41.0,37.8,33.4,85,57,34,30.36,30.25,7,0,9,0.00
2014-2-21,70.9,55.7,45.7,43.5,40.3,37.6,77,59,33,30.26,30.12,9,0,9,0.00
2014-2-22,72.5,55.4,45.3,45.7,41.1,35.2,87,63,29,30.16,30.05,9,1,9,0.00
2014-2-23,71.1,55.1,44.1,50.5,45.5,41.5,94,73,39,30.16,30.08,5,0,5,0.00
2014-2-24,72.7,56.9,45.1,50.9,45.1,41.2,89,67,40,30.15,30.04,7,0,7,0.00
2014-2-25,68.0,53.1,45.1,52.2,46.1,42.4,93,79,46,30.11,30.02,16,1,19,0.00
2014-2-26,56.8,54.0,48.7,53.6,50.7,45.7,93,89,82,30.09,29.81,14,2,17,0.45
2014-2-27,64.4,55.8,51.4,53.2,49.4,45.3,93,80,59,30.04,29.67,19,3,20,0.76
2014-2-28,58.6,53.6,51.4,53.4,49.6,45.1,93,87,72,29.68,29.50,11,2,12,0.04
2014-3-1,63.3,56.7,52.0,51.4,47.9,45.3,82,73,61,29.96,29.62,9,2,11,0.05
2014-3-2,57.9,53.2,49.5,55.0,49.3,45.3,92,87,77,30.31,29.95,14,2,14,0.05
2014-3-3,58.1,53.0,47.5,50.5,48.4,45.1,93,85,72,30.30,30.18,7,0,8,0.05
2014-3-4,59.4,54.0,51.6,55.4,51.2,48.7,95,90,84,30.26,30.19,3,0,4,0.10
2014-3-5,66.0,58.4,51.6,57.7,53.4,49.6,96,84,61,30.25,30.12,14,2,15,0.40
2014-3-6,63.5,56.2,49.6,56.3,51.2,45.9,95,84,63,30.33,30.17,9,2,13,0.42
2014-3-7,69.4,55.3,46.0,50.0,45.6,41.5,93,72,40,30.32,30.23,9,1,10,0.00
2014-3-8,71.1,57.5,45.0,50.5,45.5,41.0,88,66,44,30.35,30.24,5,0,7,0.00
2014-3-9,68.2,60.7,55.2,57.0,51.4,44.6,84,72,62,30.32,30.20,5,0,5,0.00
2014-3-10,66.9,58.4,51.3,52.5,46.8,37.8,91,67,42,30.37,30.22,10,1,13,0.03
2014-3-11,69.8,58.2,49.1,42.3,34.3,28.6,62,42,27,30.34,30.15,15,2,15,0.00
2014-3-12,73.6,59.5,49.5,42.4,33.0,28.8,50,38,23,30.26,30.14,7,1,11,0.00
2014-3-13,77.7,62.1,49.6,46.0,33.9,20.7,77,37,14,30.20,30.09,11,1,13,0.00
2014-3-14,74.8,58.8,49.1,53.1,47.7,41.5,90,70,31,30.35,30.17,10,1,11,0.00
2014-3-15,79.5,62.1,49.1,51.4,44.6,35.8,86,58,21,30.45,30.35,9,1,9,0.00
2014-3-16,82.8,62.5,50.4,55.9,42.1,30.7,83,50,17,30.44,30.30,10,1,17,0.00
2014-3-17,68.0,56.8,48.9,48.9,43.2,32.9,88,63,32,30.35,30.11,11,2,12,0.00
2014-3-18,70.7,56.2,42.4,41.4,34.6,25.7,79,49,21,30.12,30.03,9,1,10,0.00
2014-3-19,74.8,57.6,44.4,45.7,36.0,28.9,64,45,29,30.23,30.10,7,0,8,0.00
2014-3-20,75.6,59.4,48.9,48.2,40.9,33.4,78,52,27,30.19,30.06,9,1,11,0.00
2014-3-21,71.1,54.7,46.2,53.2,46.1,42.8,91,75,47,30.12,30.05,13,3,14,0.00
2014-3-22,74.8,56.3,46.8,53.1,44.7,38.3,90,69,30,30.24,30.11,10,2,11,0.00
2014-3-23,75.9,57.8,46.6,54.1,44.6,38.3,91,65,30,30.30,30.21,11,2,12,0.00
2014-3-24,78.3,60.1,46.2,53.4,42.5,36.5,83,56,27,30.27,30.14,11,1,11,0.00
2014-3-25,62.8,52.9,45.3,55.0,46.7,36.9,90,80,53,30.17,29.99,14,2,14,0.02
2014-3-26,59.2,52.5,48.4,52.5,48.1,45.5,94,85,65,30.11,29.94,17,3,19,0.08
2014-3-27,63.0,53.4,47.7,50.7,47.4,44.8,95,81,56,30.28,30.10,12,2,14,0.27
2014-3-28,68.2,56.8,49.8,54.7,49.8,47.3,92,78,55,30.33,30.24,13,2,14,0.02
2014-3-29,56.8,53.8,47.8,54.9,49.9,44.2,93,87,78,30.27,30.13,11,1,11,0.04
2014-3-30,59.4,50.8,44.1,47.7,43.9,40.6,93,78,56,30.26,30.17,15,2,17,0.04
2014-3-31,54.9,47.0,43.5,46.4,42.9,40.3,92,86,69,30.22,29.96,12,1,14,0.76
2014-4-1,54.1,46.5,42.1,48.7,43.1,39.9,93,88,75,30.09,29.97,15,1,18,0.57
2014-4-2,60.8,48.7,41.2,47.3,42.7,39.4,95,81,51,30.25,30.01,8,1,9,0.64
2014-4-3,64.2,52.1,43.5,50.5,44.9,40.5,93,78,49,30.26,30.16,16,2,16,0.00
2014-4-4,58.3,50.3,46.8,48.6,45.5,43.5,94,84,61,30.20,30.12,16,2,17,0.21
2014-4-5,66.9,54.2,44.2,52.2,46.2,42.3,94,76,46,30.33,30.19,13,1,13,0.00
2014-4-6,77.9,60.3,45.9,55.9,48.7,43.2,93,69,37,30.37,30.23,7,0,8,0.00
2014-4-7,80.8,65.7,52.3,59.0,51.7,48.0,86,63,37,30.29,30.19,8,0,8,0.00
2014-4-8,81.9,66.1,54.3,65.5,53.7,47.8,87,66,36,30.24,30.14,9,1,9,0.00
2014-4-9,80.1,64.3,52.7,56.7,47.5,33.1,86,58,21,30.19,30.09,9,1,11,0.00
2014-4-10,83.3,62.1,47.5,57.6,48.3,40.3,92,64,28,30.14,30.01,6,0,7,0.00
2014-4-11,70.9,58.3,50.5,57.0,50.4,46.0,90,76,52,30.05,29.96,11,3,12,0.00
2014-4-12,67.1,55.4,50.5,53.8,48.5,45.9,87,78,58,30.07,29.99,20,6,22,0.00
2014-4-13,79.5,59.9,50.4,55.0,48.6,41.5,87,70,28,30.18,30.06,14,2,17,0.00
2014-4-14,81.7,61.8,49.6,60.3,49.4,41.0,93,68,26,30.24,30.13,10,1,10,0.00
2014-4-15,77.5,59.5,49.8,57.7,50.3,46.2,92,74,45,30.18,30.01,10,2,15,0.00
2014-4-16,82.0,62.9,48.9,53.8,47.5,43.0,91,61,30,30.06,29.94,11,1,12,0.00
2014-4-17,71.6,60.5,51.1,57.7,50.6,45.1,85,70,54,30.00,29.91,18,2,18,0.00
2014-4-18,74.1,58.5,49.5,56.8,49.2,45.3,92,73,44,30.07,29.99,11,2,13,0.00
2014-4-19,69.1,56.0,47.7,55.2,48.2,44.1,90,77,48,30.25,30.06,16,4,17,0.00
2014-4-20,82.2,62.2,46.8,55.2,46.7,36.0,94,63,21,30.28,30.17,9,1,11,0.00
2014-4-21,71.2,58.7,50.2,50.0,43.7,33.1,86,60,29,30.20,30.09,16,3,20,0.00
2014-4-22,64.8,54.0,47.7,49.6,41.5,36.7,90,65,41,30.26,30.09,19,5,21,0.01
2014-4-23,69.4,55.3,42.4,48.9,41.3,35.6,81,61,39,30.28,30.21,12,2,13,0.00
2014-4-24,68.4,56.9,49.5,54.3,50.2,46.2,91,79,58,30.25,30.09,14,3,17,0.00
2014-4-25,55.6,51.8,46.6,53.1,48.3,43.5,92,88,70,30.11,29.91,19,3,19,0.15
2014-4-26,61.2,50.6,41.7,46.4,42.9,39.6,93,76,47,30.23,29.98,17,3,17,0.16
2014-4-27,61.5,52.1,48.6,51.3,46.0,43.5,86,80,60,30.27,30.17,14,1,15,0.00
2014-4-28,74.7,58.9,44.8,52.5,45.3,38.1,91,64,34,30.36,30.26,12,1,14,0.00
2014-4-29,87.1,68.7,52.3,49.6,44.8,39.9,69,46,20,30.34,30.18,11,1,11,0.00
2014-4-30,89.6,73.5,59.5,56.8,48.4,39.4,62,42,28,30.22,30.12,7,0,10,0.00
2014-5-1,93.7,73.2,56.7,57.4,45.8,36.1,63,40,14,30.21,30.14,10,1,12,0.00
2014-5-2,86.7,67.6,53.6,55.0,44.6,37.0,80,48,19,30.20,30.10,12,2,12,0.00
2014-5-3,70.2,58.5,52.0,54.3,50.6,48.2,91,76,54,30.15,30.10,15,4,16,0.00
2014-5-4,69.4,58.3,51.6,53.8,50.1,47.5,89,75,55,30.19,30.13,15,4,17,0.00
2014-5-5,66.6,57.2,51.6,50.9,47.3,40.8,86,70,54,30.18,30.06,17,4,18,0.00
2014-5-6,72.3,58.6,47.8,49.8,44.4,41.0,80,62,36,30.08,29.99,15,2,16,0.00
2014-5-7,68.9,55.8,47.1,51.1,47.1,43.3,89,74,45,30.12,30.01,15,2,16,0.00
2014-5-8,65.7,56.6,50.5,56.3,51.4,46.4,92,83,70,30.22,30.12,15,4,17,0.00
2014-5-9,69.3,59.7,52.2,54.1,50.0,42.4,92,72,49,30.28,30.21,14,4,20,0.00
2014-5-10,69.3,57.7,47.1,47.5,43.8,38.3,83,62,35,30.26,30.14,18,2,19,0.00
2014-5-11,80.1,63.8,48.4,44.8,37.7,29.8,77,42,17,30.24,30.13,13,2,16,0.00
2014-5-12,88.2,68.5,49.6,46.8,40.1,30.0,73,41,14,30.25,30.15,10,1,11,0.00
2014-5-13,93.4,73.4,55.9,45.7,39.1,30.2,54,32,13,30.27,30.19,8,1,10,0.00
2014-5-14,97.0,76.1,59.5,50.5,42.6,33.4,52,33,13,30.25,30.15,10,1,13,0.00
2014-5-15,92.1,74.5,59.5,46.0,36.8,25.0,51,29,11,30.21,30.15,12,2,15,0.00
2014-5-16,85.5,67.2,55.0,53.2,46.5,33.4,83,50,27,30.19,30.08,13,2,13,0.00
2014-5-17,70.9,59.6,53.1,54.5,51.0,45.5,88,74,54,30.11,30.05,17,4,19,0.00
2014-5-18,73.4,61.6,54.1,54.1,48.9,44.1,83,64,46,30.11,30.04,14,4,16,0.00
2014-5-19,67.5,57.8,52.7,51.3,48.5,46.0,83,72,54,30.08,30.04,23,5,25,0.00
2014-5-20,73.8,58.6,50.2,54.0,49.6,46.6,89,74,46,30.13,30.05,15,3,17,0.00
2014-5-21,79.9,62.8,52.5,56.8,51.7,49.1,89,70,40,30.10,30.02,14,4,16,0.00
2014-5-22,84.7,63.4,53.2,57.9,52.6,49.6,89,71,39,30.13,30.02,14,3,15,0.00
2014-5-23,82.8,63.4,51.3,57.9,52.6,48.4,92,71,40,30.15,30.03,15,4,15,0.00
2014-5-24,80.4,65.0,54.9,57.6,52.7,48.0,85,66,44,30.11,30.02,14,3,16,0.00
2014-5-25,90.9,70.0,54.0,53.2,49.3,46.2,83,53,25,30.10,30.01,13,3,15,0.00
2014-5-26,90.1,69.7,52.5,57.0,49.2,39.9,81,52,23,30.13,30.04,15,3,16,0.00
2014-5-27,80.1,65.1,51.6,51.6,46.7,38.5,85,54,30,30.15,30.07,16,3,16,0.00
2014-5-28,84.0,65.2,51.3,44.1,38.1,23.2,67,41,14,30.19,30.07,13,1,13,0.00
2014-5-29,85.3,67.4,53.2,46.2,41.2,30.9,69,43,17,30.08,30.00,13,2,15,0.00
2014-5-30,71.4,57.5,49.6,51.1,48.1,44.8,89,73,45,30.09,30.00,15,5,17,0.00
2014-5-31,84.9,64.5,51.4,55.2,48.2,37.9,89,61,20,30.09,30.01,14,3,16,0.00
2014-6-1,90.0,69.3,53.8,53.6,44.2,32.9,85,48,16,30.03,29.90,12,2,13,0.00
2014-6-2,70.2,58.4,50.9,52.9,49.3,43.3,89,73,53,30.03,29.92,18,5,20,0.00
2014-6-3,82.4,63.7,51.6,55.2,49.2,40.1,88,64,25,30.07,29.97,13,3,14,0.00
2014-6-4,93.4,70.4,52.2,58.6,49.6,39.9,89,55,16,30.02,29.92,12,2,12,0.00
2014-6-5,87.6,71.2,57.9,52.9,47.8,39.0,75,47,21,29.95,29.88,13,3,15,0.00
2014-6-6,84.7,66.3,53.1,55.8,50.9,45.3,90,61,33,29.95,29.88,13,4,15,0.00
2014-6-7,92.5,69.9,52.7,58.6,53.3,48.9,92,61,31,29.96,29.87,12,4,14,0.00
2014-6-8,103.3,81.8,58.6,55.6,50.8,42.8,80,41,14,29.93,29.81,10,1,13,0.00
2014-6-9,104.7,86.5,66.2,60.3,50.7,35.8,61,32,12,29.85,29.76,15,3,16,0.00
2014-6-10,84.4,69.0,56.7,58.8,54.2,49.1,86,61,37,29.93,29.79,18,4,19,0.00
2014-6-11,72.5,62.1,55.0,56.7,53.6,50.5,87,75,56,30.02,29.91,14,6,17,0.00
2014-6-12,71.8,59.7,51.3,53.6,50.6,47.5,89,74,51,30.10,30.00,17,5,21,0.00
2014-6-13,86.4,66.0,52.0,54.1,49.6,44.6,89,61,26,30.11,30.03,12,2,13,0.00
2014-6-14,88.3,67.2,51.8,52.3,47.6,25.3,88,56,14,30.06,29.93,14,2,15,0.00
2014-6-15,73.9,59.1,52.7,52.9,50.0,47.3,87,73,45,29.96,29.89,16,5,18,0.00
2014-6-16,66.6,57.1,51.8,50.7,48.5,46.4,89,74,54,30.03,29.93,20,6,22,0.00
2014-6-17,82.9,64.2,50.4,47.8,43.0,35.1,86,52,22,30.09,30.00,13,2,15,0.00
2014-6-18,89.2,70.1,53.4,46.0,39.7,29.3,68,37,16,30.07,30.03,17,2,19,0.00
2014-6-19,85.5,70.1,55.0,53.1,47.1,38.3,77,48,20,30.09,30.03,13,4,15,0.00
2014-6-20,89.1,69.6,55.9,54.3,49.5,43.9,82,53,25,30.09,30.02,14,3,17,0.00
2014-6-21,73.0,61.3,53.1,52.2,49.5,45.7,86,67,44,30.03,29.98,17,4,17,0.00
2014-6-22,76.8,60.7,51.6,53.4,50.2,47.8,88,71,40,30.06,30.00,17,5,17,0.00
2014-6-23,85.5,66.0,52.2,57.0,51.8,47.8,90,64,34,30.07,30.01,14,4,16,0.00
2014-6-24,80.6,66.9,56.8,57.0,51.7,46.9,83,60,39,30.10,30.05,14,3,15,0.00
2014-6-25,70.5,61.5,55.2,59.2,55.7,52.3,92,82,66,30.12,30.05,15,5,18,0.00
2014-6-26,75.4,63.6,57.2,56.5,54.8,53.1,90,74,52,30.12,30.06,16,5,17,0.00
2014-6-27,78.8,65.7,55.8,62.1,57.0,52.9,90,75,53,30.10,30.03,14,4,14,0.00
2014-6-28,82.6,67.1,55.6,59.0,55.0,52.3,92,69,37,30.08,30.00,12,3,14,0.00
2014-6-29,97.3,83.2,60.6,55.8,52.4,46.0,76,37,19,30.05,29.93,12,2,12,0.00
2014-6-30,104.4,79.6,64.4,56.1,48.8,41.5,60,37,13,29.94,29.87,13,2,14,0.00
2014-7-1,79.5,66.2,55.8,58.5,55.1,51.6,91,69,47,29.96,29.86,17,5,17,0.00
2014-7-2,81.0,63.4,55.2,58.8,54.6,52.0,91,75,44,30.01,29.94,15,5,19,0.00
2014-7-3,81.1,65.5,54.9,57.0,53.6,51.4,89,68,41,30.05,29.98,16,5,16,0.00
2014-7-4,88.0,68.7,56.5,58.1,52.2,42.4,88,61,25,30.09,29.99,13,3,15,0.00
2014-7-5,94.3,71.3,52.3,54.0,46.9,20.5,90,51,7,30.17,30.09,12,3,12,0.00
2014-7-6,98.2,75.0,57.9,54.0,47.0,28.9,72,42,10,30.14,30.01,10,2,12,0.00
2014-7-7,88.0,71.6,60.6,56.1,52.0,41.0,72,52,24,30.01,29.93,9,1,11,0.00
2014-7-8,82.8,68.4,57.7,59.0,55.4,53.1,85,65,42,30.02,29.94,13,4,14,0.00
2014-7-9,77.4,64.0,56.5,59.2,55.8,52.9,92,76,53,30.06,29.97,15,5,16,0.00
2014-7-10,76.3,63.8,56.8,58.8,55.9,53.2,90,77,54,30.06,29.99,16,4,16,0.00
2014-7-11,73.8,63.4,58.5,57.2,55.0,52.7,86,75,55,30.19,30.05,18,5,18,0.00
2014-7-12,80.8,64.5,56.1,59.0,55.1,52.9,90,73,46,30.21,30.12,13,5,17,0.00
2014-7-13,95.0,70.7,54.1,62.1,56.3,52.2,94,66,30,30.15,29.98,12,4,12,0.00
2014-7-14,99.3,76.1,63.5,60.3,55.9,46.6,71,53,17,30.02,29.94,16,3,16,0.00
2014-7-15,84.9,70.6,61.3,63.9,59.1,55.4,85,68,49,30.10,29.99,16,4,17,0.00
2014-7-16,77.7,65.0,59.5,61.7,57.6,55.6,91,78,50,30.14,30.08,21,6,21,0.00
2014-7-17,73.6,64.2,59.5,59.4,56.8,55.0,89,78,59,30.13,30.06,19,6,22,0.00
2014-7-18,73.6,64.1,59.9,59.5,56.8,55.0,87,78,60,30.15,30.06,19,5,19,0.00
2014-7-19,85.8,67.6,59.2,62.2,57.5,55.4,88,72,44,30.09,30.03,14,4,16,0.00
2014-7-20,73.4,64.5,59.5,60.4,57.8,56.1,89,79,62,30.11,30.03,17,5,19,0.00
2014-7-21,73.6,65.3,59.4,61.0,58.2,54.9,88,79,64,30.19,30.10,17,5,18,0.00
2014-7-22,77.7,65.0,58.6,59.5,57.4,55.0,89,77,53,30.23,30.14,19,4,22,0.00
2014-7-23,80.4,68.8,62.4,61.9,58.9,57.2,85,72,52,30.27,30.14,13,3,16,0.00
2014-7-24,95.2,73.7,57.2,58.8,54.3,45.0,93,58,20,30.16,29.95,11,1,14,0.00
2014-7-25,101.1,80.3,63.0,52.7,48.1,32.7,63,37,10,30.00,29.92,12,1,14,0.00
2014-7-26,99.9,80.2,68.4,55.0,48.1,35.8,57,36,12,30.04,29.96,15,3,17,0.00
2014-7-27,98.8,79.3,64.0,57.9,48.1,19.6,75,40,6,30.09,30.01,14,3,14,0.00
2014-7-28,90.7,72.7,59.0,58.3,52.9,45.3,88,54,21,30.15,30.06,16,4,16,0.00
2014-7-29,94.8,76.5,61.5,59.7,49.5,25.0,83,46,10,30.15,30.06,15,3,16,0.00
2014-7-30,95.5,77.0,62.1,60.3,54.6,48.2,81,50,23,30.10,30.01,12,3,13,0.00
2014-7-31,97.2,75.8,58.6,59.5,55.1,49.3,89,54,23,30.08,29.96,12,3,13,0.00
2014-8-1,100.8,79.5,65.7,60.4,54.6,28.4,75,48,8,30.00,29.94,11,2,14,0.00
2014-8-2,82.0,66.8,56.8,59.2,55.9,53.6,91,70,45,30.04,29.96,15,5,17,0.00
2014-8-3,77.7,63.0,56.7,58.8,55.5,53.2,92,78,51,30.10,30.01,16,5,18,0.00
2014-8-4,75.9,63.4,56.8,60.4,56.3,54.0,91,79,58,30.12,30.05,12,4,14,0.00
2014-8-5,82.6,68.1,58.8,63.9,59.3,55.4,91,75,51,30.20,30.11,8,1,10,0.02
2014-8-6,88.2,74.1,65.5,64.2,59.9,53.8,88,63,40,30.14,30.04,12,2,14,0.00
2014-8-7,82.4,66.6,57.6,60.3,56.0,53.6,92,72,39,30.08,29.98,15,4,16,0.00
2014-8-8,87.6,67.5,56.5,58.5,55.1,52.0,90,68,35,30.05,29.96,14,4,17,0.00
2014-8-9,72.9,61.2,56.1,57.2,53.8,52.2,89,78,54,30.09,29.99,18,6,21,0.00
2014-8-10,78.6,63.4,56.1,58.6,55.3,52.9,91,77,48,30.14,30.05,15,4,16,0.00
2014-8-11,87.6,67.4,57.6,59.2,55.7,52.2,91,71,31,30.08,29.99,14,3,14,0.00
2014-8-12,76.5,64.3,57.0,57.7,55.5,53.2,90,74,50,30.11,30.03,14,4,15,0.00
2014-8-13,83.7,67.3,57.0,59.0,55.7,53.1,88,69,36,30.13,30.04,13,4,15,0.00
2014-8-14,84.6,68.7,57.7,58.3,53.5,45.9,92,63,28,30.08,30.00,14,3,17,0.00
2014-8-15,92.1,70.9,57.4,57.4,52.8,41.4,91,59,20,30.12,30.04,13,3,14,0.00
2014-8-16,90.5,69.9,56.1,58.8,49.5,25.5,93,57,13,30.16,30.06,14,3,15,0.00
2014-8-17,88.0,67.3,55.2,57.9,52.8,39.7,90,65,19,30.15,30.01,12,4,15,0.00
2014-8-18,76.8,62.5,56.8,59.7,56.2,54.0,93,81,54,30.03,29.91,15,6,18,0.00
2014-8-19,73.9,60.5,56.7,59.7,56.1,54.5,93,86,61,30.00,29.95,14,5,16,0.00
2014-8-20,72.5,65.4,59.4,59.9,57.3,55.4,88,76,64,30.06,30.00,17,5,18,0.00
2014-8-21,87.1,69.6,58.8,61.5,57.3,55.0,89,68,39,30.09,30.01,12,2,14,0.00
2014-8-22,79.9,65.4,58.3,59.9,57.0,54.3,92,76,48,30.05,29.99,16,4,18,0.00
2014-8-23,84.0,66.0,57.7,57.7,54.4,49.8,88,70,33,30.09,29.96,12,4,13,0.00
2014-8-24,78.6,64.8,56.3,58.3,55.4,53.2,91,74,47,30.03,29.92,16,4,16,0.00
2014-8-25,73.6,63.0,57.7,57.7,55.4,53.2,86,77,56,30.07,29.95,15,5,18,0.00
2014-8-26,86.5,67.6,55.0,58.6,54.6,51.4,91,67,31,30.14,30.04,11,3,13,0.00
2014-8-27,95.4,73.1,59.5,59.9,54.1,44.8,87,56,19,30.18,30.08,13,2,13,0.00
2014-8-28,94.3,72.2,57.6,60.4,55.5,49.5,91,61,26,30.18,30.03,11,2,14,0.00
2014-8-29,84.6,67.7,58.3,62.2,57.0,52.5,91,71,46,30.06,29.98,12,4,15,0.00
2014-8-30,92.5,73.3,63.0,58.3,54.3,42.1,74,54,21,30.03,29.95,13,3,14,0.00
2014-8-31,91.4,71.1,59.2,59.7,56.1,51.6,89,64,27,30.05,29.93,12,3,15,0.00
2014-9-1,96.8,75.8,58.6,56.3,51.9,46.8,84,49,20,29.96,29.85,11,1,11,0.00
2014-9-2,78.6,66.9,58.8,59.5,56.7,49.6,88,71,46,29.95,29.87,14,5,19,0.00
2014-9-3,90.1,68.0,59.5,60.6,57.1,53.1,89,72,31,29.93,29.81,12,3,13,0.00
2014-9-4,82.4,62.3,58.1,59.0,56.3,53.8,91,82,39,29.88,29.82,9,3,12,0.00
2014-9-11,86.7,74.6,66.2,53.6,51.9,49.1,62,47,28,29.95,29.91,3,0,11,0.00
2014-9-12,101.1,77.8,61.7,56.7,51.1,42.6,72,44,15,29.99,29.88,10,1,11,0.00
2014-9-13,97.2,75.0,62.2,61.0,56.0,48.0,81,55,27,29.94,29.84,8,1,10,0.00
2014-9-14,92.5,73.6,58.8,59.2,53.8,46.8,84,54,22,29.95,29.89,14,2,17,0.00
2014-9-15,82.9,67.8,58.6,58.3,53.5,45.7,87,63,37,30.04,29.92,13,4,18,0.00
2014-9-16,88.5,69.4,57.0,58.8,54.9,46.0,89,65,25,30.04,29.90,10,2,13,0.00
2014-9-17,83.5,68.7,59.4,62.4,56.7,51.6,89,68,35,29.93,29.84,19,4,21,0.00
2014-9-18,78.4,68.1,60.1,64.4,61.5,56.7,93,80,55,30.01,29.88,13,3,17,0.06
2014-9-19,81.7,67.6,57.6,62.6,58.4,55.2,94,75,47,30.04,29.95,12,2,14,0.00
2014-9-20,80.2,66.3,60.3,61.9,58.5,55.0,92,78,45,30.06,29.98,13,4,16,0.00
2014-9-21,71.4,63.7,60.6,60.8,58.5,56.7,89,83,69,30.13,30.03,14,5,18,0.00
2014-9-22,84.7,67.5,60.4,60.3,57.8,53.8,91,74,35,30.16,30.05,11,4,13,0.00
2014-9-23,84.9,67.9,58.6,61.5,57.6,50.0,91,73,32,30.12,30.01,10,3,12,0.00
2014-9-24,78.1,67.8,62.6,63.9,61.8,60.3,93,82,62,30.08,29.98,14,3,17,0.00
2014-9-25,72.0,62.7,56.7,61.0,56.8,54.3,94,82,55,30.13,30.00,10,2,13,0.34
2014-9-26,72.1,62.9,55.9,57.4,54.8,50.7,94,77,48,30.13,30.02,13,2,17,0.00
2014-9-27,76.3,63.2,55.0,58.3,55.3,52.0,92,77,52,30.05,29.93,13,2,16,0.00
2014-9-28,59.9,58.7,57.0,55.9,54.8,53.2,89,87,85,30.00,29.93,7,1,11,0.00
2014-10-18,77.5,66.6,58.6,56.1,55.0,53.6,85,68,47,30.04,30.01,10,1,11,0.00
2014-10-19,79.2,63.6,55.2,61.5,56.4,52.5,94,79,48,30.06,29.99,15,2,15,0.00
2014-10-20,67.3,61.1,53.4,58.1,54.9,49.3,87,80,61,30.21,30.03,15,3,18,0.00
2014-10-21,72.3,58.5,48.9,50.5,47.1,41.5,92,69,34,30.26,30.15,9,1,11,0.00
2014-10-22,76.8,60.8,49.6,55.0,49.6,45.5,88,70,37,30.23,30.14,10,1,10,0.00
2014-10-23,75.4,63.1,55.0,58.6,55.1,51.8,92,77,50,30.22,30.11,10,0,10,0.00
2014-10-24,77.7,61.7,53.4,57.9,53.5,49.1,90,76,43,30.14,30.01,15,2,15,0.00
2014-10-25,68.2,61.4,56.3,58.6,55.4,53.6,92,81,66,30.29,30.02,15,3,17,0.04
2014-10-26,68.5,57.8,50.4,53.8,48.4,43.7,93,74,42,30.32,30.19,9,1,11,0.04
2014-10-27,72.0,57.1,45.7,50.9,46.6,42.6,91,70,40,30.22,30.15,8,0,9,0.00
2014-10-28,76.6,59.7,47.1,50.5,46.1,38.8,90,65,30,30.28,30.20,7,0,9,0.00
2014-10-29,80.2,64.2,52.3,52.2,47.7,43.9,88,59,29,30.27,30.13,6,0,7,0.00
2014-10-30,79.2,63.2,57.4,55.4,50.7,46.2,85,65,33,30.13,30.00,12,1,13,0.00
2014-10-31,61.5,57.2,53.2,58.8,53.5,49.8,92,88,79,30.05,29.87,11,1,12,0.27
2014-11-1,63.0,54.7,48.7,51.1,47.6,45.0,89,78,55,30.19,29.86,12,2,16,0.27
2014-11-2,67.6,53.7,45.7,49.5,44.6,41.0,93,74,40,30.33,30.19,11,1,13,0.00
2014-11-3,70.5,54.6,44.8,46.8,42.8,37.9,88,67,34,30.42,30.32,8,0,9,0.00
2014-11-4,70.2,56.3,46.2,49.6,45.1,41.0,94,69,36,30.49,30.38,4,0,5,0.00
2014-11-5,75.6,60.8,50.7,50.7,46.5,42.4,75,61,37,30.40,30.23,8,0,8,0.00
2014-11-6,76.5,61.4,51.4,54.1,50.6,46.0,88,69,40,30.37,30.29,7,0,9,0.00
2014-11-7,74.8,60.7,51.1,56.7,51.5,48.6,93,74,49,30.38,30.24,5,0,5,0.00
2014-11-8,78.1,63.2,53.1,55.2,50.9,48.2,89,67,39,30.27,30.16,5,0,5,0.00
2014-11-9,77.4,62.8,53.1,54.0,50.3,47.1,82,66,40,30.17,29.96,4,0,5,0.00
2014-11-10,75.6,60.3,51.6,54.3,51.0,47.8,92,74,40,29.99,29.92,7,1,7,0.00
2014-11-11,62.8,57.1,52.9,53.4,50.0,46.8,89,78,62,30.12,29.98,11,2,13,0.00
2014-11-12,66.6,58.1,54.1,50.5,48.1,46.2,84,70,50,30.17,30.10,8,1,10,0.00
2014-11-13,61.3,57.8,54.0,59.2,55.2,50.5,94,91,80,30.22,30.06,5,1,8,0.20
2014-11-14,65.8,56.2,48.4,54.5,51.3,46.2,95,84,65,30.25,30.19,12,2,13,0.00
2014-11-15,66.9,54.5,46.0,52.5,47.7,43.9,94,79,52,30.35,30.23,10,1,10,0.00
2014-11-16,60.3,53.6,48.4,48.2,33.2,20.1,91,50,23,30.42,30.34,6,0,8,0.00
2014-11-17,64.0,53.2,46.8,41.7,34.6,24.1,79,52,29,30.42,30.27,7,0,9,0.00
2014-11-18,57.0,50.5,45.7,44.6,42.2,39.4,83,74,62,30.32,30.22,3,0,5,0.00
2014-11-19,58.6,52.6,48.7,54.9,48.5,41.4,94,86,70,30.30,30.16,6,0,6,0.05
2014-11-20,54.7,52.2,49.3,53.6,50.8,47.7,96,95,94,30.28,30.12,7,0,9,0.25
2014-11-21,61.2,54.7,51.1,53.2,51.3,49.6,96,89,74,30.28,30.19,4,0,6,0.25
2014-11-22,66.0,58.3,51.1,60.1,53.3,46.6,95,84,64,30.40,30.19,10,3,21,0.27
2014-11-23,60.6,49.9,45.9,47.8,44.0,40.1,90,81,48,30.50,30.39,3,0,4,0.00
2014-11-28,56.1,55.1,54.1,50.7,50.1,49.3,87,83,79,30.03,30.00,7,1,9,0.00
2014-11-29,63.9,58.2,54.9,57.6,54.3,50.7,93,87,78,30.01,29.90,7,1,8,0.02
2014-11-30,56.3,52.4,50.5,54.0,50.3,48.6,94,93,84,30.01,29.89,8,1,9,0.21
2014-12-1,56.5,54.8,52.9,54.9,53.1,51.3,94,94,94,30.19,30.12,2,0,4,0.07
2014-12-2,60.1,55.0,52.3,56.8,53.0,50.7,96,93,84,30.13,29.83,6,1,7,0.01
2014-12-3,62.6,58.6,55.8,59.0,56.1,53.2,95,91,84,30.04,29.86,16,2,17,0.09
2014-12-4,65.7,58.5,53.4,58.6,55.1,51.3,95,89,75,30.17,30.02,8,0,9,0.09
2014-12-5,66.6,58.3,53.1,59.7,55.2,51.4,96,90,74,30.22,30.12,9,1,11,0.12
2014-12-6,66.2,59.4,55.8,60.4,56.4,53.8,96,90,77,30.37,30.22,12,1,13,0.26
2014-12-7,60.1,55.5,50.2,56.5,53.5,48.2,95,93,87,30.38,30.28,5,0,7,0.00
2014-12-8,65.3,55.1,48.7,58.6,52.5,47.1,96,91,75,30.34,30.27,6,0,8,0.01
2014-12-9,59.5,55.1,52.3,57.2,53.4,50.7,96,94,88,30.36,30.23,4,0,5,0.00
2014-12-10,62.6,56.9,51.8,57.6,53.5,50.5,97,89,74,30.23,29.86,12,1,15,0.01
2014-12-11,62.6,55.1,48.4,55.4,51.4,46.9,95,88,71,29.87,29.64,13,2,19,0.96
2014-12-12,54.7,48.9,45.9,51.6,47.0,44.2,96,93,84,30.24,29.80,3,0,6,0.01
2014-12-13,54.1,47.4,44.1,50.0,45.2,42.4,96,92,82,30.40,30.24,2,0,6,0.02
2014-12-14,54.0,47.2,43.0,48.2,44.5,41.4,95,90,79,30.32,30.17,7,0,7,0.11
2014-12-15,53.1,49.7,46.6,51.1,47.4,44.8,95,92,87,30.17,29.99,9,1,10,0.02
2014-12-16,59.0,51.2,45.5,51.4,47.7,43.3,94,88,72,30.12,29.98,16,1,19,0.65
2014-12-17,55.9,49.7,45.3,50.9,47.1,43.7,96,91,77,30.24,30.09,11,1,11,0.20
2014-12-18,57.2,51.7,48.7,53.1,49.2,46.6,95,91,84,30.35,30.22,4,0,5,0.21
2014-12-19,55.4,53.1,51.3,53.6,50.9,48.6,96,92,86,30.32,30.25,10,1,14,0.03
2014-12-20,58.5,54.6,51.4,55.9,52.1,50.4,97,92,80,30.41,30.27,7,0,10,0.05
2014-12-21,64.8,58.6,55.0,60.4,56.3,53.2,96,92,81,30.47,30.39,17,2,20,0.01
2014-12-22,66.0,57.5,54.0,57.9,54.3,51.8,95,89,72,30.45,30.33,8,0,9,0.00
2014-12-23,66.2,56.4,49.6,54.3,50.9,46.8,95,83,61,30.39,30.27,5,0,8,0.01
2014-12-24,57.7,50.9,45.0,53.1,47.0,39.0,95,87,74,30.27,30.09,18,4,27,0.09
2014-12-25,55.9,46.5,38.7,39.2,34.0,27.7,88,65,35,30.32,30.22,15,1,16,0.00
2014-12-26,56.1,47.1,39.0,36.5,31.4,29.1,72,55,38,30.43,30.27,9,1,10,0.00
2014-12-27,52.3,44.2,38.5,41.0,34.9,29.8,87,70,57,30.55,30.42,5,0,7,0.00
2014-12-28,58.5,46.5,39.0,45.5,40.6,35.8,93,81,57,30.54,30.39,9,0,10,0.00
2014-12-29,52.0,44.9,40.6,45.3,41.5,37.4,94,88,67,30.40,30.25,9,0,12,0.00
2014-12-30,50.7,42.9,36.0,38.3,28.3,19.4,91,59,31,30.45,30.27,17,2,24,0.01
2014-12-31,57.4,44.2,32.2,22.6,16.5,9.7,56,34,16,30.44,30.24,13,0,15,0.00
2015-1-1,52.2,42.4,35.4,33.3,25.4,16.3,78,52,31,30.34,30.24,6,0,6,0.00
2015-1-2,51.4,39.6,32.2,35.6,30.5,25.7,87,71,47,30.40,30.29,3,0,5,0.00